{"data":{"norad_id":62899,"epoch":"2026-09-21T08:55:36.981984Z","epoch_age_seconds":92810,"freshness":"FRESH","line1":"1 62899U 25024W   26264.37195581  .00009857  00000+0  36714-3 0  9998","line2":"2 62899  43.0001 300.1955 0001635 258.6046 101.4622 15.27588637 92192","mean_motion":15.27588637,"eccentricity":0.0001635,"inclination_deg":43.0001,"raan_deg":300.1955,"arg_perigee_deg":258.6046,"mean_anomaly_deg":101.4622,"bstar":0.00036714,"rev_number":9219,"period_min":94.2662157286,"perigee_km":481.90143417812,"apogee_km":484.1450335746,"semimajor_km":6861.1602338764,"source":"CELESTRAK","updated_at":"2026-09-22T09:00:49.706049Z"}}